timestamp,surface_pressure_avg,surface_temp_avg,battery_voltage,lat,long
2022-10-30 00:09:00+00:00,256.1014,13.15,12.49,47.84626,-54.09684
2022-10-30 00:19:00+00:00,262.8614,13.11,12.49,47.84626,-54.09684
2022-10-30 00:29:00+00:00,266.8548,13.1,12.49,47.84626,-54.09684
2022-10-30 00:39:00+00:00,272.1747,13.1,12.49,47.84626,-54.09684
2022-10-30 00:49:00+00:00,280.5397,13.1,12.49,47.84626,-54.09684
2022-10-30 00:59:00+00:00,287.7531,13.1,12.49,47.84626,-54.09684
2022-10-30 01:09:00+00:00,294.3214,13.09,12.49,47.84626,-54.09684
2022-10-30 01:19:00+00:00,300.588,13.04,12.49,47.84626,-54.09684
2022-10-30 01:29:00+00:00,304.4164,13.01,12.49,47.84626,-54.09684
2022-10-30 01:39:00+00:00,309.2047,13.01,12.49,47.84626,-54.09684
2022-10-30 01:49:00+00:00,310.9664,13.04,12.49,47.84626,-54.09684
2022-10-30 01:59:00+00:00,312.0814,13.08,12.49,47.84626,-54.09684
2022-10-30 02:09:00+00:00,316.168,13.08,12.49,47.84626,-54.09684
2022-10-30 02:19:00+00:00,319.0997,13.08,12.49,47.84626,-54.09684
2022-10-30 02:29:00+00:00,315.6096,13.1,12.49,47.84626,-54.09684
2022-10-30 02:39:00+00:00,314.933,13.1,12.49,47.84626,-54.09684
2022-10-30 02:49:00+00:00,319.8397,13.1,12.49,47.84626,-54.09684
2022-10-30 02:59:00+00:00,321.3513,13.1,12.49,47.84626,-54.09684
2022-10-30 03:09:00+00:00,318.1697,13.1,12.49,47.84626,-54.09684
2022-10-30 03:19:01+00:00,316.5646,13.11,12.49,47.84626,-54.09684
2022-10-30 03:29:01+00:00,316.7963,13.1,12.49,47.84626,-54.09684
2022-10-30 03:39:01+00:00,316.5997,13.11,12.49,47.84626,-54.09684
2022-10-30 03:49:01+00:00,314.2529,13.14,12.49,47.84626,-54.09684
2022-10-30 03:59:01+00:00,316.378,13.1,12.49,47.84626,-54.09684
2022-10-30 04:09:01+00:00,316.9896,13.1,12.49,47.84626,-54.09684
2022-10-30 04:19:00+00:00,313.5598,13.11,12.49,47.84626,-54.09684
2022-10-30 04:29:00+00:00,310.6429,13.12,12.49,47.84626,-54.09684
2022-10-30 04:39:00+00:00,312.9764,13.1,12.49,47.84626,-54.09684
2022-10-30 04:49:00+00:00,311.3297,13.1,12.49,47.84626,-54.09684
2022-10-30 04:59:00+00:00,302.3064,13.12,12.49,47.84626,-54.09684
2022-10-30 05:09:00+00:00,292.663,13.12,12.49,47.84626,-54.09684
2022-10-30 05:19:00+00:00,286.413,13.1,12.41,47.84626,-54.09684
2022-10-30 05:29:00+00:00,278.5598,13.1,12.41,47.84626,-54.09684
2022-10-30 05:39:00+00:00,267.9847,13.1,12.41,47.84626,-54.09684
2022-10-30 05:49:00+00:00,262.7264,13.1,12.41,47.84626,-54.09684
2022-10-30 05:59:00+00:00,253.4848,13.1,12.41,47.84626,-54.09684
2022-10-30 06:09:00+00:00,241.3364,13.15,12.41,47.84626,-54.09684
2022-10-30 06:19:00+00:00,233.5648,13.16,12.41,47.84626,-54.09684
2022-10-30 06:29:00+00:00,228.7948,13.15,12.41,47.84626,-54.09684
2022-10-30 06:39:00+00:00,215.7331,13.17,12.41,47.84626,-54.09684
2022-10-30 06:49:00+00:00,203.2115,13.16,12.41,47.84626,-54.09684
2022-10-30 06:59:00+00:00,199.3681,13.14,12.41,47.84626,-54.09684
2022-10-30 07:09:00+00:00,195.0565,13.13,12.41,47.84626,-54.09684
2022-10-30 07:19:00+00:00,187.1848,13.11,12.41,47.84626,-54.09684
2022-10-30 07:29:00+00:00,185.4398,13.1,12.41,47.84626,-54.09684
2022-10-30 07:39:00+00:00,185.9248,13.1,12.41,47.84626,-54.09684
2022-10-30 07:49:00+00:00,184.2664,13.1,12.41,47.84626,-54.09684
2022-10-30 07:59:00+00:00,185.4881,13.1,12.41,47.84626,-54.09684
2022-10-30 08:09:00+00:00,187.7531,13.1,12.41,47.84626,-54.09684
2022-10-30 08:19:00+00:00,188.2281,13.1,12.41,47.84626,-54.09684
2022-10-30 08:29:00+00:00,190.9498,13.1,12.41,47.84626,-54.09684
2022-10-30 08:39:00+00:00,192.7931,13.1,12.41,47.84626,-54.09684
2022-10-30 08:49:00+00:00,193.2948,13.09,12.41,47.84626,-54.09684
2022-10-30 08:59:00+00:00,196.1998,13.05,12.41,47.84626,-54.09684
2022-10-30 09:09:00+00:00,198.9482,13.0,12.41,47.84626,-54.09684
2022-10-30 09:19:00+00:00,198.4998,12.99,12.41,47.84626,-54.09684
2022-10-30 09:29:00+00:00,201.7331,12.9,12.41,47.84626,-54.09684
2022-10-30 09:39:00+00:00,209.8181,12.9,12.41,47.84626,-54.09684
2022-10-30 09:49:00+00:00,213.8665,12.88,12.41,47.84626,-54.09684
2022-10-30 09:59:00+00:00,216.4814,12.85,12.41,47.84626,-54.09684
2022-10-30 10:09:00+00:00,224.7214,12.8,12.41,47.84626,-54.09684
2022-10-30 10:19:00+00:00,228.7798,12.8,12.41,47.84626,-54.09684
2022-10-30 10:29:00+00:00,226.3931,12.8,12.41,47.84626,-54.09684
2022-10-30 10:39:00+00:00,228.3297,12.8,12.41,47.84626,-54.09684
2022-10-30 10:49:00+00:00,234.8764,12.8,12.41,47.84626,-54.09684
2022-10-30 10:59:00+00:00,234.5615,12.8,12.41,47.84626,-54.09684
2022-10-30 11:09:00+00:00,233.7831,12.8,12.41,47.84626,-54.09684
2022-10-30 11:19:00+00:00,241.8848,12.8,12.81,47.84626,-54.09684
2022-10-30 11:29:00+00:00,250.963,12.8,12.81,47.84626,-54.09684
2022-10-30 11:39:00+00:00,251.6764,12.8,12.81,47.84626,-54.09684
2022-10-30 11:49:00+00:00,253.9731,12.8,12.81,47.84626,-54.09684
2022-10-30 11:59:00+00:00,264.2881,12.8,12.81,47.84626,-54.09684
2022-10-30 12:09:00+00:00,269.9998,12.8,12.81,47.84626,-54.09684
2022-10-30 12:19:00+00:00,270.9731,12.8,13.29,47.84626,-54.09684
2022-10-30 12:29:00+00:00,280.4381,12.8,13.29,47.84626,-54.09684
2022-10-30 12:39:00+00:00,293.658,12.88,13.29,47.84626,-54.09684
2022-10-30 12:49:00+00:00,299.6447,12.89,13.29,47.84626,-54.09684
2022-10-30 12:59:00+00:00,304.6163,12.9,13.29,47.84626,-54.09684
2022-10-30 13:09:00+00:00,316.953,12.9,13.29,47.84626,-54.09684
2022-10-30 13:19:01+00:00,325.453,12.91,12.97,47.84626,-54.09684
2022-10-30 13:29:01+00:00,329.8312,12.94,12.97,47.84626,-54.09684
2022-10-30 13:39:01+00:00,336.4313,12.99,12.97,47.84626,-54.09684
2022-10-30 13:49:01+00:00,345.9413,12.99,12.97,47.84626,-54.09684
2022-10-30 13:59:01+00:00,349.1413,12.94,12.97,47.84626,-54.09684
2022-10-30 14:09:01+00:00,349.8329,12.93,12.97,47.84626,-54.09684
2022-10-30 14:19:00+00:00,358.5696,12.9,12.89,47.84626,-54.09684
2022-10-30 14:29:00+00:00,363.5479,12.9,12.89,47.84626,-54.09684
2022-10-30 14:39:00+00:00,363.4979,12.9,12.89,47.84626,-54.09684
2022-10-30 14:49:00+00:00,363.3895,12.95,12.89,47.84626,-54.09684
2022-10-30 14:59:00+00:00,366.8562,12.92,12.89,47.84626,-54.09684
2022-10-30 15:09:00+00:00,367.8663,12.93,12.89,47.84626,-54.09684
2022-10-30 15:19:01+00:00,364.4312,12.98,12.97,47.84626,-54.09684
2022-10-30 15:29:01+00:00,365.1562,13.0,12.97,47.84626,-54.09684
2022-10-30 15:39:01+00:00,368.0229,12.97,12.97,47.84626,-54.09684
2022-10-30 15:49:01+00:00,361.5412,13.0,12.97,47.84626,-54.09684
2022-10-30 15:59:01+00:00,358.358,13.0,12.97,47.84626,-54.09684
2022-10-30 16:09:01+00:00,362.7413,13.0,12.97,47.84626,-54.09684
2022-10-30 16:19:00+00:00,361.1229,13.0,13.05,47.84626,-54.09684
2022-10-30 16:29:00+00:00,352.55300000000005,13.0,13.05,47.84626,-54.09684
2022-10-30 16:39:00+00:00,351.7029,13.0,13.05,47.84626,-54.09684
2022-10-30 16:49:00+00:00,355.2879,13.0,13.05,47.84626,-54.09684
2022-10-30 16:59:00+00:00,345.9079,13.0,13.05,47.84626,-54.09684
2022-10-30 17:09:00+00:00,340.24300000000005,13.0,13.05,47.84626,-54.09684
2022-10-30 17:19:00+00:00,340.7029,13.0,12.97,47.84626,-54.09684
2022-10-30 17:29:00+00:00,328.4146,13.0,12.97,47.84626,-54.09684
2022-10-30 17:39:00+00:00,313.578,13.0,12.97,47.84626,-54.09684
2022-10-30 17:49:00+00:00,309.2196,13.0,12.97,47.84626,-54.09684
2022-10-30 17:59:00+00:00,304.053,13.0,12.97,47.84626,-54.09684
2022-10-30 18:09:00+00:00,289.643,13.0,12.97,47.84626,-54.09684
2022-10-30 18:19:01+00:00,282.5414,13.0,12.81,47.84626,-54.09684
2022-10-30 18:29:01+00:00,276.728,13.0,12.81,47.84626,-54.09684
2022-10-30 18:39:01+00:00,263.4413,13.0,12.81,47.84626,-54.09684
2022-10-30 18:49:01+00:00,251.9115,13.0,12.81,47.84626,-54.09684
2022-10-30 18:59:01+00:00,247.8964,13.0,12.81,47.84626,-54.09684
2022-10-30 19:09:01+00:00,238.4099,13.0,12.81,47.84626,-54.09684
2022-10-30 19:19:00+00:00,226.5765,13.0,12.65,47.84626,-54.09684
2022-10-30 19:29:00+00:00,225.3831,13.0,12.65,47.84626,-54.09684
2022-10-30 19:39:00+00:00,225.8064,13.0,12.65,47.84626,-54.09684
2022-10-30 19:49:00+00:00,218.3681,13.0,12.65,47.84626,-54.09684
2022-10-30 19:59:00+00:00,214.1481,13.0,12.65,47.84626,-54.09684
2022-10-30 20:09:00+00:00,220.3965,13.0,12.65,47.84626,-54.09684
2022-10-30 20:19:00+00:00,219.7514,13.0,12.49,47.84626,-54.09684
2022-10-30 20:29:00+00:00,212.4447,13.0,12.49,47.84626,-54.09684
2022-10-30 20:39:00+00:00,213.2315,13.0,12.49,47.84626,-54.09684
2022-10-30 20:49:00+00:00,217.3981,13.0,12.49,47.84626,-54.09684
2022-10-30 20:59:00+00:00,217.6597,13.0,12.49,47.84626,-54.09684
2022-10-30 21:09:00+00:00,217.2331,13.0,12.49,47.84626,-54.09684
2022-10-30 21:19:00+00:00,221.7765,13.0,12.49,47.84626,-54.09684
2022-10-30 21:29:00+00:00,225.0431,13.0,12.49,47.84626,-54.09684
2022-10-30 21:39:00+00:00,219.8131,13.0,12.49,47.84626,-54.09684
2022-10-30 21:49:00+00:00,218.5432,13.0,12.49,47.84626,-54.09684
2022-10-30 21:59:00+00:00,224.5081,13.0,12.49,47.84626,-54.09684
2022-10-30 22:09:00+00:00,225.3264,12.99,12.49,47.84626,-54.09684
2022-10-30 22:19:01+00:00,222.4664,12.99,12.49,47.84626,-54.09684
2022-10-30 22:29:01+00:00,226.0081,12.99,12.49,47.84626,-54.09684
2022-10-30 22:39:01+00:00,232.3531,12.98,12.49,47.84626,-54.09684
2022-10-30 22:49:01+00:00,231.9431,12.97,12.49,47.84626,-54.09684
2022-10-30 22:59:01+00:00,232.2448,12.96,12.49,47.84626,-54.09684
2022-10-30 23:09:01+00:00,236.7631,12.94,12.49,47.84626,-54.09684
2022-10-30 23:19:01+00:00,240.0431,12.9,12.49,47.84626,-54.09684
2022-10-30 23:29:01+00:00,239.1831,12.9,12.49,47.84626,-54.09684
2022-10-30 23:39:01+00:00,241.7698,12.9,12.49,47.84626,-54.09684
2022-10-30 23:49:01+00:00,245.5414,12.9,12.49,47.84626,-54.09684
2022-10-30 23:59:01+00:00,247.8414,12.9,12.49,47.84626,-54.09684
